Miscellaneous Local Product
Issued by NWS North Platte, NE

Home | Current Version | Previous Version | Text Only | Print | Product List | Glossary On
Versions: 1 2 3 4 5 6 7 8 9 10 11 12 13 14 15 16 17 18 19 20 21 22 23 24 25 26 27 28 29 30 31 32 33 34 35 36 37 38 39 40 41 42 43 44 45 46 47 48 49 50
000
AXUS43 KLBF 300910
MISLBF


WESTERN AND NORTH CENTRAL NEBRASKA HOURLY WEATHER ROUNDUP
NATIONAL WEATHER SERVICE NORTH PLATTE NE
400 AM CDT THU MAR 30 2017

NOTE: "FAIR" INDICATES FEW OR NO CLOUDS BELOW 12,000 FEET WITH NO
SIGNIFICANT WEATHER AND/OR OBSTRUCTIONS TO VISIBILITY.

NOTE: STATIONS NOT REPORTING VARIABLES SUCH AS SKY/WEATHER OR
PRESSURE ARE PROVIDED BY RAWS AND APRS NETWORKS AND ARE NOT UNDER
NATIONAL WEATHER SERVICE QUALITY CONTROL.

...OBSERVATIONS IN AND NEAR THE EASTERN PANHANDLE OF NEBRASKA...

CITY           SKY/WX    TMP DP  RH WIND       PRES   REMARKS
PINE RIDGE     CLEAR     30  29  96 CALM      29.87F
CHADRON        CLEAR     33  31  92 CALM      29.86F
ALLIANCE       CLEAR     27  26  96 W5        29.86F WCI  22
SIDNEY         CLEAR     31  30  96 W5        29.86F WCI  26
CRESCENT LAKE    N/A     34  34 100 CALM        N/A
$$

...OBSERVATIONS IN NORTHERN NEBRASKA AND FAR SOUTHERN SOUTH DAKOTA...

CITY           SKY/WX    TMP DP  RH WIND       PRES   REMARKS
WINNER         CLOUDY    40  36  86 E7        29.91F
VALENTINE      CLOUDY    36  33  89 NE7       29.89F WCI  30
THEDFORD       CLOUDY    38  33  81 N9        29.87F WCI  32
AINSWORTH      CLOUDY    36  36 100 NE9       29.88F WCI  29
O`NEILL        CLOUDY    37  37  98 N10       29.88F FOG     WCI  30
ORD            CLOUDY    37  34  89 N14       29.83F WCI  28
BROKEN BOW     CLOUDY    37  33  85 N20       29.83F WCI  27
VALENTINE NWR    N/A     37  34  90 N3          N/A
HALSEY           N/A     38  34  85 NW6         N/A  WCI  33
BUTTE            N/A     36  34  94 N7          N/A  WCI  30
CHAMBERS         N/A     36  35  98 E3          N/A
EWING            N/A     37  36  96 N5          N/A  WCI  33
$$

...OBSERVATIONS IN SOUTHWEST NEBRASKA AND FAR NORTHEAST COLORADO...

CITY           SKY/WX    TMP DP  RH WIND       PRES   REMARKS
WRAY           FAIR     N/A N/A N/A W5        29.86F
HOLYOKE        FAIR      37  36  93 W10       29.86F WCI  30
IMPERIAL       CLOUDY    36  34  92 N12       29.87F WCI  28
OGALLALA       CLOUDY    37  36  96 NW7       29.88S FOG     WCI  32
NORTH PLATTE   CLOUDY    40  33  76 N12       29.85F WCI  33
MCCOOK         CLOUDY    39  36  89 N13       29.83F WCI  31
LEXINGTON      CLOUDY    38  34  87 N24       29.83F WCI  26
STAPLETON        N/A     36  33  88 CALM        N/A
GOTHENBURG       N/A     39  35  84 N10         N/A  WCI  32
CALLAWAY         N/A     36  35  95 N12         N/A  WCI  28
$$

...OBSERVATIONS IN CENTRAL LINCOLN COUNTY AREA...

CITY           SKY/WX    TMP DP  RH WIND       PRES   REMARKS
N.P. AIRPORT   CLOUDY    40  33  76 N12       29.85F WCI  33
N.P. DOWNTOWN    N/A     39  35  85 N7          N/A  WCI  34
N.P. SOUTHEAST   N/A     39  34  83 N5G13       N/A
N.P. HILLCREST   N/A     39  35  85 N13G20      N/A  WCI  31
$$

...SOME OBSERVATIONS FROM AROUND THE REGION...

CITY           SKY/WX    TMP DP  RH WIND       PRES   REMARKS
DENVER         PTCLDY    36  29  75 S9        29.87F WCI  29
LIMON          CLEAR     30  29  96 N7        29.89F WCI  23
ASPEN          CLOUDY    33  23  66 VRB6      30.06F WCI  28
LARAMIE        CLOUDY    33  25  72 SW6       29.90F WCI  28
CASPER         CLOUDY    38  31  76 W8        29.85S WCI  32
CHEYENNE       CLEAR     35  32  88 SW13      29.87F WCI  26
SCOTTSBLUFF    CLEAR     34  30  85 NE3       29.86F
GRAND ISLAND   CLOUDY    37  37 100 N20       29.79S WCI  27
OMAHA          CLOUDY    43  38  82 NE13      29.71F
SIOUX FALLS    CLOUDY    39  38  96 NE14      29.90F WCI  31
PIERRE         CLEAR     33  31  92 CALM      29.92F
RAPID CITY     PTCLDY    35  33  92 SE7       29.84F WCI  29
BISMARCK       PTCLDY    43  34  70 SE9       29.88F
KANSAS CITY    DRIZZLE   51  51 100 E8        29.57S
HILL CITY      CLOUDY    41  38  89 N14       29.80F
WICHITA        LGT RAIN  44  44 100 NW20G26   29.63F FOG
DODGE CITY     CLOUDY    41  39  93 NW18G26   29.77F
OKLAHOMA CITY  CLOUDY    45  39  79 W17       29.75S
DALLAS         PTCLDY    55  43  63 W12       29.83F
AMARILLO       CLEAR     41  36  82 W14       29.90F
$$




USA.gov is the U.S. government's official web portal to all federal, state and local government web resources and services.